Regional Weather Roundup
Issued by NWS

Home | Current Version | Previous Version | Graphics & Text | Print | Product List | Glossary Off
Versions: 1 2 3 4 5 6 7 8 9 10 11 12 13 14 15 16 17 18 19 20 21 22 23 24 25 26 27 28 29 30 31 32 33 34 35 36 37 38 39 40 41 42 43 44 45 46 47 48 49 50

000
ASUS43 KTOP 301359
RWRKS

WEATHER ROUNDUP FOR KANSAS
NATIONAL WEATHER SERVICE GOODLAND KS
900 AM CDT SAT MAY 30 2015

NOTE:  "FAIR" INDICATES FEW OR NO CLOUDS BELOW 12,000 FEET WITH NO
SIGNIFICANT WEATHER AND/OR OBSTRUCTIONS TO VISIBILITY.

KSZ001>006-013>018-027>032-041>047-301500-
NORTHWEST KANSAS

CITY           SKY/WX    TMP DP  RH WIND       PRES   REMARKS
GOODLAND       CLOUDY    48  41  76 N13       30.32S
HAYS           MOSUNNY   52  39  62 N22       30.26R
HILL CITY      MOSUNNY   52  41  66 N18G25    30.29R
RUSSELL        MOSUNNY   54  45  71 N18G26    30.23R
$$

KSZ061>065-074>080-084>089-301500-
SOUTHWEST KANSAS

CITY           SKY/WX    TMP DP  RH WIND       PRES   REMARKS
DODGE CITY     MOSUNNY   53  43  68 N23       30.26S
ELKHART          N/A     53  45  74 N8          N/A
GARDEN CITY    CLOUDY    49  45  86 N20G25    30.28R
GREAT BEND     SUNNY     54  43  66 N18G25    30.23S
LIBERAL        CLOUDY    54  46  76 NE13      30.29R
$$

KSZ066>073-081>083-090>101-301500-
SOUTHEAST KANSAS

CITY           SKY/WX    TMP DP  RH WIND       PRES   REMARKS
CHANUTE        CLOUDY    59  57  93 NW10      30.09R
COFFEYVILLE    CLOUDY    60  58  92 NW15      30.07R
HUTCHINSON     CLOUDY    56  46  69 N20G29    30.19R
MEDICINE LODGE   N/A     57  49  74 N16G29    30.19S
NEWTON         CLOUDY    54  45  71 N18G25    30.19R
PARSONS        CLOUDY    61  58  90 N13       30.09R
WICHITA INTL   CLOUDY    55  48  77 N18       30.16R
WICHITA JABRA  CLOUDY    54  48  82 N20G31    30.16R
WINFIELD       CLOUDY    57  51  80 N17       30.15R
$$

KSZ007>012-019>026-033>040-048>060-102>105-301500-
NORTHEAST KANSAS

CITY           SKY/WX    TMP DP  RH WIND       PRES   REMARKS
CONCORDIA      CLOUDY    52  46  80 N12       30.21R
EMPORIA        CLOUDY    54  52  93 N13G22    30.13R
LAWRENCE       CLOUDY    56  52  86 NW17      30.11R
MANHATTAN      CLOUDY    54  49  83 N8        30.17R
OLATHE IND     CLOUDY    56  54  93 N18       30.10R
OLATHE EXE     CLOUDY    56  55  97 N13G20    30.08R FOG
SALINA         CLOUDY    54  46  74 NW16      30.20R
TOPEKA BILLARD LGT RAIN  55  53  93 N12       30.13S FOG
TOPEKA FORBES  CLOUDY    55  53  93 NW15      30.12R FOG
$$



USA.gov is the U.S. government's official web portal to all federal, state and local government web resources and services.